Location: Newport
(44.6370°N, 124.0520°W)
Time: 20:32:18
(UTC-07:00)

Vanguard 3 - Visible Passes

Search period start: 18 October 2018 00:00
Search period end: 28 October 2018 00:00
Orbit: 507 x 3265 km, 33.4° (Epoch: 18 October)

Date Brightness Start Highest point End Pass type
(mag) Time Alt. Az. Time Alt. Az. Time Alt. Az.
18 Oct 10.6 19:35:16 10° W 19:53:16 51° SSW 20:10:10 10° SE visible
18 Oct 10.7 21:52:13 10° W 22:07:14 28° SW 22:14:46 21° S visible
19 Oct 10.6 18:19:42 10° W 18:36:50 56° S 18:55:22 10° ESE visible
19 Oct 10.8 20:34:50 10° W 20:51:55 39° SSW 21:05:21 15° SSE visible
19 Oct 11.1 22:55:26 10° W 23:04:33 15° SW 23:09:57 13° SSW visible
20 Oct 10.7 19:18:38 10° W 19:35:55 48° SSW 19:53:21 10° SE visible
20 Oct 11.0 21:35:32 10° W 21:49:54 26° SW 22:00:39 14° S visible
21 Oct 10.9 20:18:11 10° W 20:34:33 37° SSW 20:50:11 10° SSE visible
21 Oct 11.3 22:39:50 10° WSW 22:47:17 13° SW 22:54:14 10° SSW visible
22 Oct 10.8 19:02:08 10° W 19:18:36 46° SSW 19:36:14 10° SE visible
22 Oct 11.2 21:19:07 10° W 21:32:33 24° SW 21:45:09 10° S visible
23 Oct 11.1 20:01:44 10° W 20:17:11 34° SW 20:32:50 10° SSE visible
23 Oct 11.5 22:25:30 10° WSW 22:30:01 11° SW 22:34:26 10° SW visible
24 Oct 11.0 18:45:49 10° W 19:01:19 43° SSW 19:18:55 10° SE visible
24 Oct 11.3 21:03:00 10° W 21:15:14 21° SW 21:27:14 10° S visible
25 Oct 11.3 19:45:29 10° W 19:59:52 30° SW 20:15:14 10° SSE visible
26 Oct 11.1 18:29:40 10° W 18:44:06 39° SSW 19:01:23 10° SSE visible
26 Oct 11.5 20:47:19 10° WSW 20:57:57 18° SW 21:08:49 10° S visible
27 Oct 11.4 19:29:28 10° W 19:42:38 27° SW 19:57:17 10° SSE visible
